sat.trackr.live / text

‹ back to catalog

STARLINK-30402

NORAD 57827 · 2023-138V

PAYLOAD ACTIVE UNKNOWN

§ Identity

Operator
Country
US
Launch date
2023-09-09
Launch site
AFETR
Launch vehicle
Mass (kg)
RCS (m²)

Purposes: comms

External: N2YO · Heavens-Above · Gunter

§ Orbital elements

Epoch: 2026-05-25T00:35:40.854624Z

Period
94.27 min
Inclination
43.0034°
Eccentricity
0.0001374
Mean motion
15.27578874 rev/d
Perigee alt
482.1 km
Apogee alt
484.0 km
Semi-major
6,861.2 km
B*
7.0069e-5
RAAN
163.0059°
Arg perigee
271.6063°
Mean anomaly
88.4631°
Rev number
15,040

§ Raw data

STARLINK-304021 57827U 23138V   26145.02477841  .00001666  00000+0  70069-4 0  99912 57827  43.0034 163.0059 0001374 271.6063  88.4631 15.27578874150403

JSON: /api/v1/satellites/57827 · /tle

For live sub-satellite position, see the globe view (requires WebGL).

§ Visibility from observer

Set your observer location to see the next 7 days of passes ≥ 10°. The values pass through the URL so the page stays shareable.

No JS? Fill the form by hand. The geolocation button needs JavaScript.